Location: Songkhla
(7.2000°N, 100.6000°E)
Time: 14:55:21
(UTC+07:00)

ISS - All Passes

Search period start: 11 August 2020 00:00
Search period end: 21 August 2020 00:00
Orbit: 418 x 420 km, 51.6° (Epoch: 11 August)

Date Brightness Start Highest point End Pass type
(mag) Time Alt. Az. Time Alt. Az. Time Alt. Az.
11 Aug - 07:53:53 10° S 07:56:48 27° SE 07:59:42 10° ENE daylight
11 Aug - 19:26:30 10° NW 19:29:52 85° ENE 19:33:13 10° SE visible
12 Aug - 07:07:44 10° SSE 07:09:19 13° SE 07:10:53 10° E daylight
12 Aug - 08:43:20 10° WSW 08:45:54 20° NW 08:48:28 10° N daylight
12 Aug - 18:39:17 10° NNW 18:42:21 33° NE 18:45:26 10° ESE daylight
13 Aug - 07:55:08 10° SW 07:58:21 46° NW 08:01:35 10° NNE daylight
13 Aug - 17:52:40 10° NNE 17:54:48 16° NE 17:56:55 10° E daylight
13 Aug - 19:29:09 10° W 19:31:24 17° SW 19:33:40 10° SSW visible
14 Aug - 07:07:31 10° SSW 07:10:51 68° SE 07:14:10 10° NE daylight
14 Aug - 18:40:46 10° NW 18:43:54 37° SW 18:47:02 10° SSE daylight
15 Aug - 06:20:26 10° S 06:23:20 27° SE 06:26:15 10° ENE daylight
15 Aug - 17:53:02 10° NW 17:56:23 85° NE 17:59:44 10° SE daylight
16 Aug - 05:34:14 10° SSE 05:35:48 13° SE 05:37:23 10° E visible
16 Aug - 07:09:49 10° WSW 07:12:23 20° NW 07:14:58 10° N daylight
16 Aug - 17:05:45 10° NNW 17:08:50 33° NE 17:11:54 10° ESE daylight
17 Aug - 06:21:35 10° SW 06:24:49 46° NW 06:28:02 10° NNE daylight
17 Aug - 16:19:07 10° NNE 16:21:14 16° NE 16:23:21 10° E daylight
17 Aug - 17:55:34 10° W 17:57:50 17° SW 18:00:07 10° SSW daylight
18 Aug - 05:33:56 10° SSW 05:37:15 68° SE 05:40:35 10° NE visible
18 Aug - 17:07:09 10° NW 17:10:17 37° SW 17:13:26 10° SSE daylight
19 Aug - 04:46:47 10° S 04:49:42 27° SE 04:52:36 10° ENE visible
19 Aug - 16:19:22 10° NW 16:22:43 84° NE 16:26:04 10° SE daylight
20 Aug - 04:00:35 10° SSE 04:02:08 13° SE 04:03:41 10° E visible
20 Aug - 05:36:07 10° WSW 05:38:42 21° NW 05:41:18 10° N visible
20 Aug - 15:32:04 10° NNW 15:35:08 33° NE 15:38:11 10° ESE daylight
